Theta_e
319 318 318 318 318 319 320 322 322 323 324 323 323 323 323 324 324 323 324 324 324 324 324 323 324 326 328 328 329 328 327 329 329 328 328 328 327 326 325 324 323 322 321 320
320 320 320 320 319 318 319 320 321 322 322 322 322 322 322 323 323 323 323 323 324 324 324 324 324 325 327 329 329 329 329 331 330 328 328 327 327 325 325 323 324 322 321 320
320 320 320 319 319 319 319 318 319 321 322 321 321 322 323 323 323 323 323 323 323 324 324 324 325 326 327 329 330 330 330 331 330 327 329 327 325 324 326 325 322 321 320 319
320 320 319 319 318 319 320 319 318 319 320 322 322 322 322 323 324 323 324 323 323 324 324 324 325 326 327 328 329 329 330 330 330 328 326 326 327 326 325 323 321 321 320 319
320 320 320 320 319 319 320 321 321 320 320 322 321 322 323 324 324 324 324 324 323 324 324 324 324 324 326 327 328 328 329 330 328 329 327 327 326 324 323 323 322 322 320 319
319 320 320 319 320 320 320 320 321 322 322 324 323 323 323 323 325 325 325 325 325 325 325 325 324 323 326 327 327 327 329 330 329 329 327 327 326 326 325 324 323 321 318 317
320 320 320 319 319 319 319 321 324 323 323 325 323 324 324 325 325 325 325 325 325 325 325 325 325 325 325 326 326 326 327 330 329 328 327 326 326 326 325 324 322 320 318 317
322 322 321 320 319 321 321 321 324 329 327 324 323 324 325 325 325 323 324 324 325 325 325 326 328 324 323 326 326 326 327 328 328 327 326 326 325 324 323 322 320 320 318 317
323 322 321 322 321 320 321 323 322 324 325 327 325 324 325 325 324 324 324 324 325 326 327 327 327 327 326 324 326 326 326 327 326 327 326 325 324 324 322 322 322 320 318 316
325 326 322 321 319 320 321 321 324 324 327 328 325 326 327 326 325 325 325 324 325 325 326 326 327 327 327 326 326 325 325 325 326 326 326 324 324 323 322 321 321 319 318 317
324 325 324 322 320 320 320 320 322 324 324 325 326 325 325 325 324 324 324 325 325 323 324 326 326 326 325 325 325 325 324 324 326 326 325 324 323 322 321 321 320 318 317 317
322 326 328 323 321 321 321 321 321 330 325 324 324 324 323 324 323 324 325 324 323 323 323 324 326 325 325 325 325 325 325 325 325 325 324 323 322 322 321 320 319 318 316 316
317 323 326 324 323 322 323 322 323 325 326 325 329 324 323 323 323 323 324 324 324 324 323 324 325 326 325 325 324 324 326 325 324 323 322 322 322 321 320 319 318 316 316 316
310 316 320 323 321 321 323 323 322 325 329 327 327 324 323 324 323 323 323 324 324 325 324 323 324 324 324 324 324 324 324 323 323 322 322 321 321 320 319 318 316 315 314 315
309 313 313 314 314 316 318 320 321 323 325 326 323 324 323 323 323 325 325 325 324 324 324 325 324 324 324 324 324 324 324 323 323 322 321 321 320 319 317 315 314 313 314 314
308 310 310 312 312 313 314 315 316 317 320 322 322 322 322 323 323 323 323 324 323 323 323 324 325 325 325 323 323 324 325 324 322 322 321 320 318 316 315 313 313 312 312 312
305 307 309 314 311 310 312 313 313 314 314 316 318 319 319 320 320 320 320 321 322 323 322 323 324 325 324 322 323 324 324 323 322 321 320 318 316 314 313 312 311 311 311 311
304 305 307 310 308 312 311 312 312 313 314 314 315 315 315 316 316 316 317 318 318 319 320 321 323 323 321 321 322 325 324 323 322 320 318 316 314 312 311 311 311 311 310 308
304 305 308 309 311 307 306 308 310 311 311 311 310 311 311 312 313 314 314 315 316 318 323 322 320 322 322 322 325 325 323 322 319 317 316 314 312 311 310 310 310 310 308 308
304 305 309 307 308 310 307 306 307 307 311 309 309 310 310 312 314 314 315 315 316 320 322 322 322 320 321 325 325 323 321 319 317 316 313 312 310 310 309 308 307 307 306 306
302 304 308 309 310 307 306 306 307 308 309 309 310 311 311 311 312 311 312 313 314 317 318 319 320 322 322 324 322 320 319 317 315 313 311 310 310 309 307 306 305 305 305 305
304 305 307 307 309 308 306 306 306 308 309 310 312 312 313 312 314 314 313 314 316 316 315 318 321 321 323 321 319 318 316 314 312 310 309 310 308 306 305 305 304 304 304 304
305 305 307 305 306 306 305 306 307 308 309 310 309 311 312 312 312 313 313 314 315 316 316 318 322 322 319 317 316 316 314 311 309 309 308 306 306 306 306 305 304 304 304 305
304 304 308 305 303 303 303 304 305 305 307 308 308 308 309 311 310 311 312 313 314 315 318 320 319 319 316 315 313 312 310 309 308 307 306 307 306 305 305 304 304 304 304 303
305 305 305 304 304 303 304 304 304 306 306 307 307 308 309 309 309 312 310 312 313 316 318 318 318 317 315 313 311 309 308 307 307 306 306 306 306 304 304 304 303 303 302 302
304 304 307 309 304 303 304 305 305 306 305 306 306 307 308 308 309 310 309 312 312 316 318 318 317 315 313 311 309 307 307 305 305 305 304 304 303 303 303 303 303 303 302 300
Wind_Speed
17 14 17 21 20 21 21 20 21 20 17 19 20 20 21 19 14 14 18 17 18 18 18 22 22 22 23 23 22 21 20 18 14 11 9 7 6 3 3 2 2 4 5 6
17 16 18 19 18 20 22 21 20 17 17 8 14 20 21 21 19 20 19 19 19 19 19 22 26 25 26 26 24 23 22 20 17 12 8 3 3 3 3 3 3 5 5 8
19 14 7 16 10 15 17 20 20 18 14 10 15 21 22 20 20 19 20 18 20 20 21 19 24 28 28 28 27 26 25 23 19 13 9 6 4 5 6 6 5 2 8 8
17 18 9 14 17 17 18 19 17 19 17 14 19 18 24 24 24 22 19 19 19 19 21 21 21 29 30 30 28 27 26 24 20 16 13 10 7 4 3 6 6 8 8 10
17 16 13 16 17 15 16 15 17 18 15 18 21 14 15 12 26 23 21 21 20 20 21 22 22 30 31 30 29 28 26 24 21 18 13 11 9 7 6 6 8 10 11 8
18 13 11 15 17 13 8 9 12 13 15 16 24 21 15 15 20 18 16 19 21 22 22 23 28 31 32 30 29 28 28 25 23 20 16 13 8 8 8 7 10 11 11 13
20 23 16 14 12 10 13 12 10 13 14 18 21 21 16 3 5 5 12 8 5 8 11 12 15 17 29 30 31 30 29 26 24 20 17 15 12 10 9 9 10 12 14 14
18 19 24 18 21 17 20 18 11 16 14 17 22 17 16 11 12 8 6 7 3 7 11 13 14 18 25 29 30 29 28 24 24 21 19 16 13 12 12 11 12 13 16 16
17 23 14 21 20 19 22 14 20 21 19 13 10 14 9 4 5 6 9 8 7 3 3 7 10 15 20 26 28 28 26 24 24 22 18 16 14 14 13 12 12 14 16 17
11 18 19 14 11 17 19 17 13 9 16 20 17 19 10 19 16 16 16 10 7 3 3 3 5 7 13 18 24 26 24 25 25 21 18 17 16 15 14 13 15 17 18 18
12 15 19 22 15 20 16 16 15 13 15 16 15 16 19 14 11 10 10 11 6 3 4 5 6 10 14 17 22 23 25 25 22 21 19 18 16 15 15 15 17 18 18 19
8 10 18 27 25 19 19 23 22 13 21 15 15 15 9 5 3 3 9 7 3 2 4 7 9 12 15 19 23 24 23 22 22 20 19 18 16 15 16 17 18 18 20 21
13 6 14 20 18 21 16 20 18 17 15 23 17 17 18 11 11 8 9 4 8 5 4 7 10 11 15 17 18 21 22 21 19 19 19 17 16 16 17 18 19 20 21 22
8 11 16 15 21 18 24 21 23 22 17 20 22 23 23 14 7 8 10 14 10 10 7 8 8 9 13 14 17 18 19 19 17 17 17 16 16 17 17 18 19 20 22 23
6 18 20 23 26 27 24 23 15 16 19 23 23 26 22 20 11 6 12 12 10 11 10 11 10 9 10 16 18 18 18 19 18 17 16 16 16 17 18 19 20 21 22 24
16 19 21 27 26 25 27 25 23 21 26 22 22 24 25 23 20 12 9 10 10 11 13 14 14 15 14 17 18 20 18 18 16 16 16 16 17 17 19 20 21 22 23 24
18 15 16 20 23 25 25 30 31 30 28 23 24 25 21 23 22 20 18 16 16 16 13 17 15 11 14 19 22 18 17 17 17 17 17 17 17 18 19 20 21 22 23 23
21 21 17 18 20 23 15 22 26 26 26 26 25 26 25 26 25 24 22 20 18 18 18 17 17 19 22 20 21 15 16 17 16 15 17 16 16 18 18 20 21 22 22 23
23 20 16 17 18 20 23 24 21 19 21 18 19 23 24 23 21 21 18 19 17 15 18 19 25 23 19 21 10 13 16 14 14 15 14 14 14 17 19 20 21 22 23 26
14 18 15 17 18 22 24 27 26 25 21 21 20 22 22 20 15 13 11 12 12 13 15 18 22 28 25 14 10 13 14 15 14 12 10 11 14 16 18 19 22 24 25 28
14 13 15 14 15 17 23 19 11 21 17 12 16 18 17 20 17 20 17 16 17 19 21 25 25 26 17 13 10 12 13 12 8 6 8 11 13 14 17 19 21 23 25 28
15 12 14 14 10 9 14 19 22 15 10 14 18 17 18 16 14 13 6 11 17 18 24 26 24 19 8 9 10 12 10 5 4 6 8 10 12 15 16 18 21 23 25 27
8 13 12 16 9 15 18 18 16 4 11 13 11 13 20 19 14 14 12 13 15 22 18 27 9 5 11 9 11 10 6 3 4 5 7 10 12 14 15 18 20 22 22 23
18 18 15 17 20 23 23 22 19 8 10 14 14 13 21 17 15 14 12 11 16 17 18 11 10 13 12 12 9 6 3 1 3 5 7 9 12 12 15 17 19 20 21 23
17 17 21 21 23 20 20 21 13 20 13 17 12 17 17 17 15 17 10 13 15 17 10 6 13 15 14 11 8 4 1 2 3 5 8 9 11 13 16 17 18 20 21 21
17 18 14 17 19 15 17 18 15 19 14 19 17 16 18 15 15 17 12 14 18 19 8 18 13 15 12 9 7 3 2 3 4 5 7 9 12 13 16 19 21 19 21 30
Wind_Direction
201 224 221 227 223 244 261 237 228 251 216 205 232 231 230 245 212 230 217 222 209 211 202 196 192 183 183 183 183 182 180 174 175 179 185 185 205 193 246 269 309 313 306 318
238 227 249 235 236 227 244 257 257 236 224 222 245 241 243 236 222 213 226 225 220 205 210 195 188 193 193 191 188 188 187 183 183 187 199 192 184 222 256 267 267 278 286 305
232 231 203 251 228 243 236 239 239 246 223 223 247 256 246 235 239 234 235 229 228 215 208 206 189 197 198 195 194 193 190 186 188 192 181 177 198 228 233 207 291 265 301 296
239 242 217 246 235 219 239 223 244 248 230 224 209 249 231 232 227 226 220 229 225 216 207 208 205 195 203 202 198 199 194 189 190 190 193 205 234 261 271 287 290 298 295 293
235 230 229 237 232 231 242 262 213 239 237 242 252 233 259 249 212 220 218 222 220 216 211 216 214 207 203 205 200 201 196 194 193 194 203 200 220 236 250 271 290 296 293 285
250 268 238 240 235 237 250 239 249 244 240 234 236 240 236 241 208 203 214 214 221 222 223 220 218 215 196 205 206 199 196 197 197 193 197 205 221 232 260 274 294 298 301 301
231 241 223 241 243 199 231 227 229 224 226 235 235 237 243 262 353 202 202 183 184 229 241 246 243 229 194 198 205 201 197 200 201 196 197 204 215 229 251 268 279 291 294 299
232 230 223 203 229 227 203 228 218 233 236 239 218 232 240 261 156 163 160 188 205 237 247 235 225 223 219 197 204 204 193 202 206 203 203 207 216 231 247 257 274 281 290 295
257 255 266 215 201 229 244 209 246 263 274 274 265 194 223 156 238 180 187 216 216 201 264 248 249 241 217 196 194 202 197 202 209 209 207 210 219 232 249 263 273 279 285 290
258 269 267 230 226 232 239 264 226 232 252 251 249 255 211 185 189 188 205 192 154 171 180 202 219 208 207 184 183 199 197 204 209 208 209 216 224 234 246 259 268 276 281 284
269 256 249 261 202 235 221 240 248 252 227 243 253 249 241 185 170 176 192 175 157 177 142 145 163 168 186 176 180 189 201 205 205 207 213 220 229 237 248 259 269 275 279 279
288 266 244 238 252 237 234 253 226 231 240 250 258 252 113 66 127 164 175 146 264 202 157 145 147 164 174 175 185 188 203 208 208 210 216 227 234 242 252 262 271 277 280 280
352 261 257 250 248 253 252 236 247 259 231 233 243 241 257 259 196 181 221 242 190 218 211 168 162 167 179 179 190 190 198 212 218 216 222 228 239 248 258 267 274 278 279 279
322 268 273 260 253 246 240 236 245 239 245 229 242 246 244 244 174 203 214 214 224 198 219 237 195 191 192 203 203 212 216 215 222 228 232 241 247 256 266 274 279 281 281 280
268 275 276 270 275 281 283 257 239 269 267 238 244 252 247 255 227 61 25 299 222 221 214 224 240 253 235 213 221 233 233 231 232 233 239 247 255 263 271 278 282 282 281 281
290 271 273 272 268 264 268 268 272 257 244 251 255 260 274 290 298 293 274 262 270 283 290 271 229 226 234 254 254 225 232 244 239 235 243 251 257 266 273 278 280 281 283 283
275 277 277 276 272 265 257 253 254 256 260 259 253 255 265 267 274 276 277 269 264 264 255 277 272 248 245 254 259 249 227 232 233 234 243 252 262 271 278 280 283 284 285 288
254 259 265 264 271 263 260 256 254 263 263 266 272 272 274 277 280 284 289 289 288 285 285 284 276 277 267 269 262 231 227 223 226 231 245 258 269 277 282 283 284 286 287 284
228 240 250 255 258 264 261 260 258 254 259 257 264 269 274 280 287 278 276 267 269 283 284 282 279 282 283 281 239 218 216 215 221 234 252 267 279 285 287 288 290 290 289 286
239 235 240 245 247 251 249 255 262 269 260 257 263 274 275 280 271 266 261 329 309 305 298 304 300 278 273 271 229 199 212 212 224 243 266 282 284 288 292 293 291 292 289 286
268 262 243 251 250 253 258 269 285 231 248 262 274 267 272 254 259 275 289 287 284 290 286 285 287 281 263 239 181 210 216 221 236 261 275 284 287 295 292 292 293 292 290 290
258 260 263 263 265 263 246 262 259 282 304 293 305 293 292 286 303 290 305 287 295 273 267 275 270 256 240 153 186 212 215 228 261 279 286 295 298 296 294 294 295 294 294 292
271 271 270 260 262 302 297 290 307 139 295 282 289 294 293 273 277 280 291 315 296 282 285 284 234 159 136 169 204 205 201 236 277 293 305 300 299 299 299 300 298 297 298 300
267 253 245 255 255 256 262 268 269 288 272 251 248 263 270 292 290 301 295 301 285 298 283 222 169 152 161 186 190 198 187 260 310 310 306 306 304 307 304 304 298 305 307 310
269 277 269 262 252 254 260 269 265 279 285 283 263 263 253 270 254 254 275 270 281 293 284 232 164 167 172 180 177 160 122 334 331 317 314 312 310 316 311 303 307 306 308 314
269 268 260 257 265 267 251 261 267 265 259 253 277 279 279 274 266 272 272 275 275 292 244 230 169 146 161 176 154 136 67 5 339 324 325 325 320 317 312 312 313 317 319 317